Location: Newark
(48.3453°N, 0.5589°E)
Time: 14:50:05
(UTC+00:00)

Transit 2A Rocket - Visible Passes

Search period start: 20 January 2021 00:00
Search period end: 30 January 2021 00:00
Orbit: 592 x 911 km, 66.7° (Epoch: 20 January)

Date Brightness Start Highest point End Pass type
(mag) Time Alt. Az. Time Alt. Az. Time Alt. Az.
20 Jan 7.1 19:04:23 10° N 19:04:34 10° N 19:04:34 10° N visible
22 Jan 7.0 19:20:57 10° NNW 19:21:42 13° N 19:21:42 13° N visible
23 Jan 6.7 18:38:46 10° N 18:40:22 13° NNE 18:40:22 13° NNE visible
24 Jan 6.7 17:56:54 10° N 17:57:59 11° NNE 17:59:03 10° NNE visible
24 Jan 6.9 19:37:53 10° NNW 19:38:59 16° NNW 19:38:59 16° NNW visible
25 Jan 6.3 18:55:31 10° NNW 18:57:43 20° N 18:57:43 20° N visible
26 Jan 6.2 18:13:14 10° N 18:16:08 17° NNE 18:16:31 16° NE visible
26 Jan 6.7 19:55:02 10° NNW 19:56:26 20° NNW 19:56:26 20° NNW visible
27 Jan 6.6 17:31:07 10° N 17:33:04 12° NNE 17:34:57 10° NE visible
27 Jan 5.6 19:12:30 10° NNW 19:15:19 33° N 19:15:19 33° N visible
28 Jan 5.4 18:30:05 10° NNW 18:34:01 29° NE 18:34:18 29° NE visible
28 Jan 6.8 20:12:32 10° NW 20:14:13 21° WNW 20:14:13 21° WNW visible
29 Jan 6.0 17:47:45 10° NNW 17:51:06 20° NE 17:53:23 14° ENE visible
29 Jan 5.1 19:29:46 10° NW 19:33:19 55° NW 19:33:19 55° NW visible
